Home > Weather > Stavanger > Past weeks

Flag for Norway Weather for the Past 2 Weeks in Stavanger, Norway

Now
43 °F

Passing clouds.


Feels Like: 36 °F
Forecast: 42 / 46 °F
Wind: 12 mph from West

Location: Stavanger / Sola

Current Time: Feb 6, 2016 at 8:29:08 AM

Latest Report: Feb 6, 2016 at 7:50 AM


Visibility: N/A

Pressure: 29.42 "Hg

Humidity: 87%

Dew point: 39 °F

Location of StavangerLocation

Historic Weather in Stavanger — Graph

°F

Stavanger Temperature Yesterday

Maximum temperature yesterday: 46 °F (at 9:50 PM)
Minimum temperature yesterday: 30 °F (at 12:20 AM)
Average temperature yesterday: 40 °F

High & Low Weather Summary for the Past Weeks

 TemperatureHumidityPressure
High52 °F (Jan 25, 12:20 PM)100% (Jan 24, 7:50 AM)30.18 "Hg (Jan 24, 7:50 AM)
Low30 °F (Feb 4, 9:20 PM)56% (Jan 31, 10:20 PM)28.77 "Hg (Feb 2, 1:50 PM)
Average42 °F84%29.55 "Hg
* Reported Jan 22 6:20 AM — Feb 6 6:50 AM, Stavanger, Weather by CustomWeather, © 2016

Note: Actual official high and low records may vary slightly from our data, if they occured in-between our weather recording intervals... More about our weather records

Advertising

Stavanger Weather History for the Previous 24 Hours

 ConditionsComfort  
Time TempWeatherWind HumidityBarometerVisibility
6:50 AM
Sat, Feb 6
45 °FLight rain. Passing clouds.15 mph87%29.39 "Hg6 mi
6:20 AM46 °FRain. Partly cloudy.21 mph93%29.36 "Hg3 mi
5:50 AM46 °FLight rain. Passing clouds.20 mph93%29.36 "Hg5 mi
4:50 AM46 °FRain. Passing clouds.24 mph93%29.39 "Hg4 mi
3:50 AM46 °FRain. Passing clouds.21 mph93%29.42 "Hg3 mi
2:50 AM46 °FRain. Low clouds.22 mph87%29.45 "Hg5 mi
1:50 AM46 °FRain. Passing clouds.22 mph87%29.47 "Hg3 mi
12:50 AM46 °FRain. Passing clouds.20 mph87%29.50 "Hg4 mi
12:20 AM46 °FPartly cloudy.20 mph87%29.53 "Hg6 mi
11:50 PM
Fri, Feb 5
46 °FLight rain. Partly cloudy.22 mph87%29.53 "HgN/A
11:20 PM46 °FPassing clouds.21 mph87%29.56 "HgN/A
10:50 PM46 °FPartly cloudy.17 mph87%29.56 "HgN/A
10:20 PM46 °FPartly cloudy.18 mph87%29.59 "HgN/A
9:50 PM46 °FPassing clouds.16 mph87%29.59 "HgN/A
9:20 PM45 °FPassing clouds.16 mph93%29.59 "HgN/A
8:50 PM45 °FPassing clouds.17 mph93%29.59 "HgN/A
8:20 PM45 °FPartly cloudy.16 mph93%29.62 "Hg4 mi
7:50 PM45 °FPassing clouds.15 mph93%29.62 "HgN/A
7:20 PM43 °FPassing clouds.16 mph93%29.65 "HgN/A
6:50 PM45 °FPassing clouds.15 mph93%29.65 "HgN/A
6:20 PM43 °FPassing clouds.15 mph93%29.65 "HgN/A
5:50 PM43 °FPassing clouds.14 mph93%29.68 "HgN/A
5:20 PM43 °FPassing clouds.14 mph93%29.68 "HgN/A
4:50 PM43 °FPartly sunny.15 mph87%29.68 "HgN/A
4:20 PM43 °FPartly sunny.12 mph87%29.71 "HgN/A
3:50 PM43 °FPartly sunny.12 mph87%29.71 "HgN/A
3:20 PM43 °FPartly sunny.14 mph87%29.71 "HgN/A
2:50 PM43 °FPartly sunny.13 mph87%29.71 "HgN/A
2:20 PM41 °FDrizzle. Partly sunny.15 mph87%29.74 "HgN/A
1:50 PM41 °FPartly sunny.14 mph87%29.74 "HgN/A
1:20 PM41 °FPartly sunny.17 mph87%29.74 "HgN/A
12:50 PM41 °FPartly sunny.15 mph87%29.77 "HgN/A
12:20 PM39 °FDrizzle. Partly sunny.16 mph87%29.77 "HgN/A
11:50 AM39 °FBroken clouds.15 mph87%29.80 "HgN/A
11:20 AM39 °FDrizzle. Partly sunny.16 mph87%29.80 "HgN/A
10:50 AM39 °FPartly sunny.13 mph87%29.80 "HgN/A
10:20 AM37 °FDrizzle. Partly sunny.14 mph87%29.80 "HgN/A
9:50 AM36 °FPartly sunny.8 mph87%29.83 "HgN/A
9:20 AM36 °FRain. Partly sunny.9 mph87%29.83 "HgN/A
8:50 AM36 °FDrizzle. Partly sunny.10 mph87%29.86 "Hg6 mi
8:20 AM36 °FLight rain. Partly cloudy.10 mph87%29.86 "HgN/A
Weather by CustomWeather, © 2016

See weather overviewHow to use our weather pages